User: anonymous   Login
Location: Unspecified
(0.0000°N, 0.0000°E)
Time: 00:44:40
(UTC+00:00)
Language:

SOHLA-1 (MAIDO-1) - Orbit

View from above orbital plane
View from above orbital plane
View from above satellite
View from above satellite

Ground track
Ground track

The orbit data is extracted from the following two-line orbital elements,

1 33496U 09002E   21023.56210227  .00000033  00000-0  13757-4 0  9992
2 33496  98.3695 231.6911 0006730 152.2098 207.9469 14.71905057643877
Epoch (UTC): 23 January 2021 13:29:25
Eccentricity: 0.0006730
inclination: 98.3695°
perigee height: 650 km
apogee height: 660 km
right ascension of ascending node: 231.6911°
argument of perigee: 152.2098°
revolutions per day: 14.71905057
mean anomaly at epoch: 207.9469°
orbit number at epoch: 64387

The dashed part of the orbit path shows where the satellite is in the earth's shadow,  

DLR